sat.trackr.live / text

‹ back to catalog

STARLINK-37082

NORAD 68182 · 2026-050R

PAYLOAD ACTIVE UNKNOWN

§ Identity

Operator
Country
US
Launch date
2026-03-14
Launch site
AFETR
Launch vehicle
Mass (kg)
RCS (m²)

Purposes: comms

External: N2YO · Heavens-Above · Gunter

§ Orbital elements

Epoch: 2026-05-24T17:50:20.373504Z

Period
93.85 min
Inclination
53.1597°
Eccentricity
0.0001038
Mean motion
15.34398908 rev/d
Perigee alt
462.0 km
Apogee alt
463.4 km
Semi-major
6,840.8 km
B*
6.2041e-4
RAAN
273.0475°
Arg perigee
67.0841°
Mean anomaly
293.0271°
Rev number
1,233

§ Raw data

STARLINK-370821 68182U 26050R   26144.74329136  .00020642  00000+0  62041-3 0  99992 68182  53.1597 273.0475 0001038  67.0841 293.0271 15.34398908 12336

JSON: /api/v1/satellites/68182 · /tle

For live sub-satellite position, see the globe view (requires WebGL).

§ Visibility from observer

Set your observer location to see the next 7 days of passes ≥ 10°. The values pass through the URL so the page stays shareable.

No JS? Fill the form by hand. The geolocation button needs JavaScript.